Location: Strawberry
(45.6646°N, 111.9596°W)
Time: 21:57:08
(UTC+00:00)

Explorer 11/Cluster Stage 4 - Pass Details

Date: 08 October 2022
Orbit: 466 x 1248 km, 28.8° (Epoch: 28 November)

Event Time Altitude Azimuth Distance (km) Brightness Sun altitude
Rises 16:08:24 0° 213° (SSW) 3,987 10.3 23.6°
Reaches altitude 10° 16:12:31 10° 193° (SSW) 3,126 10.1 24.2°
Maximum altitude 16:16:47 16° 160° (SSE) 2,785 10.6 24.8°
Drops below altitude 10° 16:21:09 10° 127° (SE) 3,212 11.6 25.4°
Sets 16:25:28 0° 108° (ESE) 4,156 11.3 25.9°
